Regional Weather Roundup
Issued by NWS

Home | Current Version | Previous Version | Text Only | Print | Product List | Glossary Off
Versions: 1 2 3 4 5 6 7 8 9 10 11 12 13 14 15 16 17 18 19 20 21 22 23 24 25 26 27 28 29 30 31 32 33 34 35 36 37 38 39 40 41 42 43 44 45 46 47 48 49 50

000
ASUS45 KCYS 171310
RWRWY

WYOMING REGIONAL WEATHER ROUNDUP
NATIONAL WEATHER SERVICE CHEYENNE WY
700 AM MDT FRI APR 17 2015

NOTE:  "FAIR" INDICATES FEW OR NO CLOUDS BELOW 12,000 FEET
WITH NO SIGNIFICANT WEATHER AND/OR OBSTRUCTIONS TO VISIBILITY.

WYZ001-171400-
YELLOWSTONE NATIONAL PARK

CITY           SKY/WX    TMP DP  RH WIND       PRES   REMARKS
LK YELLOWSTONE   N/A     19  15  84 CALM      30.26F
W YELLOWSTONE  NOT AVBL

$$
WYZ002>013-054>058-071-098>099-171400-
NORTHERN WYOMING

CITY           SKY/WX    TMP DP  RH WIND       PRES   REMARKS
JACKSON        FAIR      28  25  86 N9        30.23R WCI  20
CODY           FAIR      32  28  86 S9        30.23R WCI  24
GREYBULL       FAIR      30  25  81 NW5       30.23F WCI  25
WORLAND        FAIR      26  24  92 S7        30.23S WCI  18
SHERIDAN       FAIR      27  23  85 CALM      30.22R
BUFFALO        FAIR      36  25  64 NW8       30.21R WCI  30
GILLETTE       FAIR      28  24  85 CALM      30.21S
HULETT         FAIR      34  28  80 NE3       30.22S
NEWCASTLE      FAIR      36  32  87 N9        30.19S WCI  29

$$
WYZ014>020-022>026-101>103-171400-
CENTRAL WYOMING

CITY           SKY/WX    TMP DP  RH WIND       PRES   REMARKS
BIG PINEY      FAIR      22  19  89 NE6       30.18F WCI  14
PINEDALE       FAIR      23  21  93 W9        30.18F WCI  13
DUBOIS         FAIR      23  19  86 NW10      30.23S WCI  12
LANDER         FAIR      33  29  85 NW6       30.19F WCI  28
RIVERTON       FAIR      32  27  81 NW15      30.20F WCI  22
CASPER         CLOUDY    37  30  75 SE3       30.19R
DOUGLAS        LGT RAIN  38  36  92 W5        30.20R WCI  34

$$
WYZ021-027>030-104>119-171400-
SOUTHERN WYOMING

CITY           SKY/WX    TMP DP  RH WIND       PRES   REMARKS
EVANSTON       CLOUDY    31  27  85 N9        30.14F WCI  23
FORT BRIDGER   CLOUDY    32  32 100 CALM      30.18F
ROCK SPRINGS   SNOW      30  29  96 NE20      30.14S VSB 1/2 WCI  17
DIXON          FAIR      37  30  75 N13       30.06R WCI  29
RAWLINS        LGT SNOW  33  31  92 NE15      30.13R FOG     WCI  23
SARATOGA       PTSUNNY   34  32  93 MISG      30.10S
LARAMIE        LGT SNOW  31  29  92 NE23      30.07S FOG     WCI  18
CHEYENNE       RAIN      34  33  96 N17G24    30.08R FOG     WCI  23
TORRINGTON     LGT RAIN  42  39  89 NE20G29   30.10F
PINE BLUFFS    RAIN      39  37  93 NE16      30.07F WCI  30

$$



USA.gov is the U.S. government's official web portal to all federal, state and local government web resources and services.